Location: Boćki
(52.6512°N, 23.0459°E)
Time: 02:19:29
(UTC+01:00)

ISS - Pass Details

Date: 27 January 2019
Orbit: 403 x 411 km, 51.6° (Epoch: 19 February)

Event Time Altitude Azimuth Distance (km) Brightness Sun altitude
Rises 16:47:56 0° 213° (SSW) 2,324 1.0 -6.9°
Reaches altitude 10° 16:50:20 10° 196° (SSW) 1,469 -0.4 -7.2°
Maximum altitude 16:52:50 20° 146° (SSE) 1,006 -2.0 -7.6°
Drops below altitude 10° 16:55:22 10° 97° (E) 1,479 -1.5 -8.0°
Enters shadow 16:55:37 - 94° (E) 1,560 -1.4 -8.0°
